Weather History for KDNV - March, 2013

Change the Weather History Date:

Sunday, March 31, 2013

  Actual Average (KLAF) Record (KLAF)
Temperature  
Mean Temperature 51 °F 46 °F  
Max Temperature 62 °F 57 °F 84 °F (1981)
Min Temperature 39 °F 36 °F 14 °F (1969)
Degree Days  
Heating Degree Days 14 19  
Month to date heating degree days 752  
Since 1 July heating degree days 5085  
Cooling Degree Days 0 0  
Month to date cooling degree days 1  
Year to date cooling degree days 1  
Growing Degree Days 1 (Base 50)    
Moisture  
Dew Point 41 °F    
Average Humidity 71    
Maximum Humidity 95    
Minimum Humidity 43    
Precipitation  
Precipitation 0.00 in 0.11 in 1.43 in (1993)
Month to date precipitation 2.67  
Year to date precipitation 6.29  
Sea Level Pressure  
Sea Level Pressure 29.80 in    
Wind  
Wind Speed 11 mph (West)    
Max Wind Speed 21 mph    
Max Gust Speed 34 mph    
Visibility 8 miles    
Events Rain    
T = Trace of Precipitation, MM = Missing Value Source: NWS Daily Summary

Daily Weather History Graph

Daily Weather History Graph

Search for Another Location

Airport or City:

Trip Planner

Search our weather history database for the weather conditions in past years. The results will help you decide how hot, cold, wet, or windy it might be!

Date:

Astronomy

Mar. 31, 2013 Rise Set
Actual Time 6:35 AM CDT 7:14 PM CDT
Civil Twilight 6:08 AM CDT 7:41 PM CDT
Nautical Twilight 5:35 AM CDT 8:13 PM CDT
Astronomical Twilight 5:02 AM CDT 8:47 PM CDT
Moon No Moon Rise 9:22 AM CDT (3/31)
Length of Visible Light 13h 33m
Length of Day
12h 38m
Waning Gibbous, 77% of the Moon is Illuminated
Mar 31
Waning Gibbous
Apr 2
Last Quarter
Apr 10
New
Apr 18
First Quarter
Apr 25
Full

Hourly Weather History & Observations

Time (CDT) Temp. Windchill Dew Point Humidity Pressure Visibility Wind Dir Wind Speed Gust Speed Precip Events Conditions
12:15 AM 47.8 °F - 40.5 °F 76% 29.87 in 10.0 mi SSW 9.2 mph - N/A Rain Light Rain
12:35 AM 47.5 °F - 41.9 °F 81% 29.86 in 10.0 mi SSW 13.8 mph - N/A Rain Light Rain
12:55 AM 47.8 °F - 41.9 °F 80% 29.86 in 10.0 mi SW 9.2 mph - N/A   Overcast
1:15 AM 47.7 °F - 41.9 °F 80% 29.85 in 10.0 mi WSW 9.2 mph - N/A   Overcast
1:35 AM 47.3 °F - 42.1 °F 82% 29.85 in 10.0 mi WSW 9.2 mph - N/A   Overcast
1:55 AM 46.8 °F - 42.3 °F 84% 29.84 in 7.0 mi WSW 9.2 mph - N/A   Overcast
2:15 AM 46.4 °F 41.9 °F 42.1 °F 85% 29.84 in 7.0 mi WSW 9.2 mph - N/A   Overcast
2:35 AM 45.7 °F 41.0 °F 41.9 °F 87% 29.83 in 7.0 mi WSW 9.2 mph - N/A   Scattered Clouds
2:55 AM 45.9 °F 41.7 °F 42.6 °F 88% 29.81 in 7.0 mi WSW 8.1 mph - N/A   Mostly Cloudy
3:15 AM 45.9 °F 42.3 °F 43.0 °F 90% 29.81 in 5.0 mi WSW 6.9 mph - N/A   Overcast
3:35 AM 45.7 °F 42.7 °F 43.0 °F 90% 29.81 in 5.0 mi WSW 5.8 mph - N/A   Overcast
3:55 AM 45.5 °F 41.8 °F 43.2 °F 92% 29.80 in 5.0 mi SW 6.9 mph - N/A   Overcast
4:15 AM 45.5 °F 41.8 °F 43.2 °F 92% 29.80 in 5.0 mi WSW 6.9 mph - N/A   Overcast
4:35 AM 45.5 °F 41.3 °F 43.0 °F 91% 29.80 in 5.0 mi WSW 8.1 mph - N/A   Overcast
4:55 AM 45.7 °F 40.6 °F 42.8 °F 90% 29.79 in 4.0 mi West 10.4 mph - N/A   Overcast
5:15 AM 45.0 °F 40.6 °F 43.0 °F 93% 29.80 in 3.0 mi West 8.1 mph - N/A   Overcast
5:35 AM 45.0 °F 40.1 °F 43.7 °F 95% 29.80 in 1.8 mi West 9.2 mph - N/A   Overcast
5:55 AM 45.5 °F 40.8 °F 43.9 °F 94% 29.80 in 2.5 mi West 9.2 mph - N/A   Overcast
6:15 AM 45.5 °F 40.8 °F 44.1 °F 95% 29.80 in 4.0 mi West 9.2 mph - N/A   Overcast
6:35 AM 45.9 °F 41.7 °F 44.1 °F 93% 29.80 in 4.0 mi West 8.1 mph - N/A   Overcast
6:55 AM 46.0 °F 41.4 °F 43.9 °F 92% 29.80 in 3.0 mi West 9.2 mph - N/A   Overcast
7:15 AM 45.9 °F 41.2 °F 43.7 °F 92% 29.80 in 2.5 mi WNW 9.2 mph - N/A   Overcast
7:35 AM 46.4 °F 41.9 °F 44.6 °F 93% 29.80 in 3.0 mi West 9.2 mph - N/A   Overcast
7:55 AM 46.4 °F 41.5 °F 43.7 °F 90% 29.81 in 4.0 mi West 10.4 mph - N/A   Overcast
8:15 AM 46.8 °F - 43.7 °F 89% 29.81 in 4.0 mi West 9.2 mph - N/A   Overcast
8:35 AM 46.9 °F - 43.7 °F 88% 29.81 in 4.0 mi West 9.2 mph - N/A   Overcast
8:55 AM 47.5 °F - 43.5 °F 86% 29.81 in 5.0 mi WNW 11.5 mph - N/A   Scattered Clouds
9:15 AM 47.7 °F - 43.5 °F 86% 29.81 in 5.0 mi West 10.4 mph - N/A   Clear
9:35 AM 48.2 °F - 42.8 °F 82% 29.81 in 5.0 mi West 11.5 mph - N/A   Haze
9:55 AM 49.6 °F - 43.7 °F 80% 29.81 in 7.0 mi WNW 11.5 mph 17.3 mph N/A   Scattered Clouds
10:15 AM 51.3 °F - 43.7 °F 75% 29.81 in 7.0 mi WNW 12.7 mph - N/A   Scattered Clouds
10:35 AM 52.7 °F - 43.7 °F 71% 29.81 in 7.0 mi WNW 12.7 mph 18.4 mph N/A   Scattered Clouds
10:55 AM 53.8 °F - 43.0 °F 67% 29.81 in 7.0 mi West 16.1 mph - N/A   Clear
11:15 AM 54.1 °F - 42.1 °F 64% 29.81 in 7.0 mi WNW 13.8 mph 20.7 mph N/A   Clear
11:35 AM 55.4 °F - 42.8 °F 63% 29.80 in 7.0 mi West 13.8 mph - N/A   Scattered Clouds
11:55 AM 55.8 °F - 43.0 °F 62% 29.80 in 10.0 mi West 10.4 mph 16.1 mph N/A   Scattered Clouds
12:15 PM 56.7 °F - 43.5 °F 61% 29.80 in 10.0 mi West 12.7 mph 17.3 mph N/A   Scattered Clouds
12:35 PM 57.2 °F - 43.0 °F 59% 29.79 in 10.0 mi West 12.7 mph 18.4 mph N/A   Scattered Clouds
12:55 PM 57.9 °F - 42.6 °F 57% 29.78 in 10.0 mi West 15.0 mph 19.6 mph N/A   Scattered Clouds
1:15 PM 58.6 °F - 41.0 °F 52% 29.77 in 10.0 mi West 13.8 mph 21.9 mph N/A   Scattered Clouds
1:35 PM 58.8 °F - 41.5 °F 53% 29.77 in 10.0 mi West 16.1 mph 19.6 mph N/A   Scattered Clouds
1:55 PM 59.7 °F - 41.2 °F 50% 29.76 in 10.0 mi West 13.8 mph 21.9 mph N/A   Scattered Clouds
2:15 PM 60.8 °F - 40.5 °F 47% 29.76 in 10.0 mi WSW 15.0 mph 24.2 mph N/A   Scattered Clouds
2:35 PM 62.6 °F - 41.0 °F 45% 29.75 in 10.0 mi West 18.4 mph 25.3 mph N/A   Scattered Clouds
2:55 PM 61.5 °F - 41.2 °F 47% 29.75 in 10.0 mi West 12.7 mph 20.7 mph N/A   Scattered Clouds
3:15 PM 61.3 °F - 38.7 °F 43% 29.75 in 10.0 mi West 17.3 mph 25.3 mph N/A   Scattered Clouds
3:35 PM 62.2 °F - 40.6 °F 45% 29.75 in 10.0 mi West 20.7 mph 27.6 mph N/A   Scattered Clouds
3:55 PM 60.4 °F - 39.7 °F 46% 29.74 in 10.0 mi WSW 17.3 mph 25.3 mph N/A   Scattered Clouds
4:15 PM 60.1 °F - 39.4 °F 46% 29.74 in 10.0 mi West 17.3 mph 31.1 mph N/A   Scattered Clouds
4:35 PM 53.6 °F - 42.8 °F 67% 29.75 in 7.0 mi NW 16.1 mph 34.5 mph N/A Rain Light Rain
4:55 PM 55.8 °F - 44.1 °F 65% 29.75 in 10.0 mi WNW 8.1 mph - N/A   Scattered Clouds
5:15 PM 56.3 °F - 44.2 °F 64% 29.76 in 10.0 mi West 12.7 mph 18.4 mph N/A   Mostly Cloudy
5:35 PM 57.2 °F - 39.2 °F 51% 29.76 in 10.0 mi WNW 12.7 mph 26.5 mph N/A   Scattered Clouds
5:55 PM 55.8 °F - 39.4 °F 54% 29.76 in 10.0 mi West 16.1 mph 24.2 mph N/A   Scattered Clouds
6:15 PM 56.1 °F - 40.1 °F 55% 29.76 in 10.0 mi West 20.7 mph 25.3 mph N/A   Scattered Clouds
6:35 PM 55.0 °F - 41.9 °F 61% 29.77 in 10.0 mi West 13.8 mph 21.9 mph N/A   Scattered Clouds
6:55 PM 54.9 °F - 41.7 °F 61% 29.78 in 10.0 mi West 15.0 mph 18.4 mph N/A   Clear
7:15 PM 54.5 °F - 38.5 °F 55% 29.78 in 10.0 mi WNW 12.7 mph 19.6 mph N/A   Clear
7:35 PM 52.9 °F - 37.4 °F 56% 29.78 in 10.0 mi WNW 12.7 mph 17.3 mph N/A   Clear
7:55 PM 51.4 °F - 37.4 °F 59% 29.79 in 10.0 mi WNW 9.2 mph - N/A   Clear
8:15 PM 50.2 °F - 36.9 °F 60% 29.80 in 10.0 mi NW 10.4 mph - N/A   Clear
8:35 PM 48.9 °F - 36.3 °F 62% 29.81 in 10.0 mi NW 9.2 mph - N/A   Clear
8:55 PM 47.5 °F - 36.0 °F 64% 29.82 in 10.0 mi WNW 6.9 mph - N/A   Clear
9:15 PM 47.7 °F - 35.6 °F 63% 29.82 in 10.0 mi WNW 8.1 mph - N/A   Clear
9:35 PM 47.7 °F - 34.7 °F 61% 29.83 in 10.0 mi WNW 11.5 mph - N/A   Clear
9:55 PM 46.6 °F - 33.4 °F 60% 29.84 in 10.0 mi NW 18.4 mph 24.2 mph N/A   Clear
10:15 PM 44.8 °F 38.0 °F 32.9 °F 63% 29.85 in 10.0 mi NNW 15.0 mph 28.8 mph N/A   Clear
10:35 PM 43.0 °F 35.1 °F 32.9 °F 68% 29.86 in 10.0 mi NNW 17.3 mph 21.9 mph N/A   Clear
10:55 PM 42.1 °F 34.2 °F 31.3 °F 66% 29.87 in 10.0 mi NW 16.1 mph 23.0 mph N/A   Clear
11:15 PM 41.0 °F 34.3 °F 31.6 °F 69% 29.87 in 10.0 mi NNW 11.5 mph - N/A   Clear
11:35 PM 40.5 °F 34.1 °F 31.6 °F 71% 29.87 in 10.0 mi NNW 10.4 mph - N/A   Clear
11:55 PM 39.9 °F 33.9 °F 31.1 °F 71% 29.88 in 10.0 mi NNW 9.2 mph - N/A   Clear